This is the latest recevied weather packets stored in our database for station/object IZ1UQG-2. If no packets are shown the sender has not sent any weather packets the latest 10 day(s).
| Time | Temp. | Humidity | Pressure | Rain* | Wind** | Luminosity | Snow |
|---|---|---|---|---|---|---|---|
| 1777635304 | 16.67° C | 39% | 1025.6 hPa | 0 mm | - | 814 W/m² | - |
| 1777635004 | 16.67° C | 40% | 1025.6 hPa | 0 mm | - | 821 W/m² | - |
| 1777634352 | 16.67° C | 40% | 1025.8 hPa | 0 mm | - | 441 W/m² | - |
| 1777634224 | 16.67° C | 40% | 1025.9 hPa | 0 mm | - | 489 W/m² | - |
| 1777633804 | 16.67° C | 39% | 1025.9 hPa | 0 mm | - | 621 W/m² | - |
| 1777633753 | 16.67° C | 39% | 1026 hPa | 0 mm | - | 664 W/m² | - |
| 1777633325 | 16.11° C | 40% | 1026.3 hPa | 0 mm | - | 747 W/m² | - |
| 1777632485 | 16.11° C | 39% | 1026.4 hPa | 0 mm | - | 570 W/m² | - |
| 1777632185 | 15.56° C | 39% | 1026.3 hPa | 0 mm | - | 529 W/m² | - |
| 1777632064 | 16.11° C | 38% | 1026.3 hPa | 0 mm | - | 540 W/m² | - |
| 1777631705 | 15.56° C | 39% | 1026.4 hPa | 0 mm | - | 517 W/m² | - |
| 1777631585 | 15.56° C | 39% | 1026.5 hPa | 0 mm | - | 517 W/m² | - |
| 1777631285 | 15.56° C | 39% | 1026.5 hPa | 0 mm | - | 492 W/m² | - |
| 1777630984 | 15.56° C | 39% | 1026.6 hPa | 0 mm | - | 508 W/m² | - |
| 1777630564 | 15.56° C | 40% | 1026.7 hPa | 0 mm | - | 483 W/m² | - |
| 1777629724 | 15.56° C | 40% | 1026.6 hPa | 0 mm | - | 439 W/m² | - |
| 1777629665 | 15.56° C | 40% | 1026.6 hPa | 0 mm | - | 438 W/m² | - |
| 1777628585 | 15° C | 42% | 1026.6 hPa | 0 mm | - | 346 W/m² | - |
| 1777627865 | 15° C | 40% | 1026.7 hPa | 0 mm | - | 366 W/m² | - |
| 1777627745 | 15° C | 41% | 1026.6 hPa | 0 mm | - | 369 W/m² | - |
| 1777627144 | 15° C | 42% | 1026.6 hPa | 0 mm | - | 359 W/m² | - |
| 1777625765 | 15° C | 43% | 1026.5 hPa | 0 mm | - | 311 W/m² | - |
| 1777625165 | 15° C | 45% | 1026.5 hPa | 0 mm | - | 290 W/m² | - |
| 1777624564 | 14.44° C | 43% | 1026.4 hPa | 0 mm | - | 276 W/m² | - |
| 1777623906 | 14.44° C | 47% | 1026.4 hPa | 0 mm | - | 260 W/m² | - |
* Rain latest hour (hover to see other rain measurements)
** Current wind speed in m/s (hover to see current wind gust speed)